BADR-5 (36592 NORAD) Tracking and Keplerian Element Data

This shows tracking and keplerian element data for the satellite.

Feedback or suggestion? Click here.




ElementValue
Catalog36592
NameBADR-5
Epoch Orbit5142
Epoch Day354.10253131
Epoch Year2025
RAAN112.8016
Inclination0.0654
Eccentricity0.0002597
Argument of Perigee103.0888
Mean Anonmoly295.9403
Mean Motion1.00271712
Decay Rate1.69E-06
L11 36592U 10025A 25354.10253131 .00000169 00000+0 00000+0 0 9992
L22 36592 0.0654 112.8016 0002597 103.0888 295.9403 1.00271712 51427



Live tracking and technical data element details for BADR-5 (NORAD 36592). BADR-5 can be tracked NOW for your location showing map with azimuth and elevation plus other details from your city location.







IsCatalogInMostPopularTable: catalog: 36592, numindb: 431
Update: records affected: 1



GetName: 36592 BADR-5

Hit Count: updated at: Thu, 16 Apr 2026 05:45:48 GMT